This demonstration page uses our WeatherBlox Daily Observations layout. Learn more.

Left ArrowRight Arrow

39.08367, -84.50855

Hourly Observations for April 30, 2019

Temp ( °F °C ) Dew Point ( °F °C ) Humidity (%) Winds ( mph kmh ) Pressure ( in mb ) Visibility ( mi km ) Precip ( " mm )
12:53 am 00:53 Partly Cloudy 61 16.1 55 12.8 81 81 NNE 7 11 30.13 1020 10 16.0934 0 0
1:53 am 01:53 Clear 59 15 53 11.7 81 81 N 5 7 30.15 1021 10 16.0934 0 0
2:53 am 02:53 Mostly Cloudy 58 14.4 53 11.7 84 84 NE 5 7 30.15 1021 10 16.0934 0 0
3:03 am 03:03 Mostly Cloudy 57 13.9 53 11.7 87 87 NE 10 17 30.15 1021 10 16.0934 0 0
3:19 am 03:19 Partly Cloudy 57 13.9 52 11.1 83 83 NE 8 13 30.15 1021 10 16.0934 0 0
3:53 am 03:53 Mostly Cloudy 56 13.3 51 10.6 84 84 NNE 7 11 30.15 1021 10 16.0934 0 0
4:53 am 04:53 Mostly Cloudy 56 13.3 51 10.6 84 84 NNE 5 7 30.16 1021 10 16.0934 0 0
5:29 am 05:29 Cloudy 55 12.8 51 10.6 87 87 Calm 30.18 1022 10 16.0934 0 0
5:53 am 05:53 Cloudy 55 12.8 51 10.6 87 87 Calm 30.17 1022 10 16.0934 0 0
6:53 am 06:53 Cloudy 56 13.3 52 11.1 87 87 ENE 5 7 30.19 1022 10 16.0934 0 0
7:53 am 07:53 Cloudy 57 13.9 52 11.1 83 83 ENE 5 7 30.2 1023 10 16.0934 0 0
8:53 am 08:53 Cloudy 58 14.4 52 11.1 81 81 E 7 11 30.2 1023 10 16.0934 0 0
9:35 am 09:35 Mostly Cloudy 60 15.6 53 11.7 78 78 E 6 9 30.2 1023 10 16.0934 0 0
9:53 am 09:53 Mostly Cloudy 60 15.6 52 11.1 75 75 ENE 6 9 30.2 1023 10 16.0934 0 0
10:53 am 10:53 Cloudy 61 16.1 53 11.7 75 75 N 6 9 30.21 1023 10 16.0934 0 0
11:53 am 11:53 Mostly Sunny 65 18.3 56 13.3 73 73 NNE 8 13 30.2 1023 10 16.0934 0 0
12:53 pm 12:53 Cloudy 69 20.6 57 13.9 66 66 N 7 11 30.2 1023 10 16.0934 0 0
1:53 pm 13:53 Mostly Sunny 70 21.1 58 14.4 66 66 NNE 10 17 30.18 1022 10 16.0934 0 0
2:53 pm 14:53 Mostly Cloudy 69 20.6 58 14.4 68 68 NNE 7 11 30.17 1022 10 16.0934 0 0
3:53 pm 15:53 Mostly Sunny 72 22.2 59 15 64 64 NNE 9 15 30.15 1021 10 16.0934 0 0
4:53 pm 16:53 Mostly Sunny 75 23.9 61 16.1 62 62 NE 8 13 30.11 1020 10 16.0934 0 0
5:53 pm 17:53 Sunny 74 23.3 62 16.7 67 67 NE 10 17 30.09 1019 10 16.0934 0 0
6:53 pm 18:53 Sunny 75 23.9 62 16.7 64 64 VRB 5 7 30.07 1018 10 16.0934 0 0
7:53 pm 19:53 Partly Cloudy 71 21.7 63 17.2 76 76 NE 7 11 30.08 1019 10 16.0934 0 0
8:53 pm 20:53 Clear 69 20.6 61 16.1 76 76 Calm 30.07 1018 10 16.0934 0 0
9:53 pm 21:53 Clear 64 17.8 62 16.7 93 93 Calm 30.07 1018 10 16.0934 0 0
10:53 pm 22:53 Clear 61 16.1 60 15.6 97 97 Calm 30.06 1018 10 16.0934 0 0
11:53 pm 23:53 Clear with Mist and Fog 60 15.6 59 15 96 96 Calm 30.04 1017 6 9.65604 0 0

Powered by AerisWeather